Location: *
(42.5628°N, 2.3633°E)
Time: 20:38:08
(UTC+00:00)

ARGOS - Pass Details

Date: 30 March 2020
Orbit: 820 x 834 km, 98.5° (Epoch: 31 May)

Event Time Altitude Azimuth Distance (km) Brightness Sun altitude
Exits shadow 19:07:09 - 153° (SSE) 3,338 5.9 -10.3°
Reaches altitude 10° 19:09:28 10° 150° (SSE) 2,432 5.2 -10.7°
Maximum altitude 19:14:44 58° 72° (ENE) 961 3.2 -11.6°
Drops below altitude 10° 19:20:02 10° 354° (N) 2,440 5.9 -12.6°
Sets 19:22:25 0° 351° (N) 3,375 6.7 -13.0°
